DO7GH Weather Reports


time (UTC)temp
C
wind
direction
speed
KPH
gust
KPH
rain 1hr
cm
rain 24hr
cm
rain mn
cm
humidity
%
barometer
mb
20260506121524 19 135 3.2 14.5 0.00 0.08 0.00 55 1004.9
20260506121008 19 22 3.2 11.3 0.00 0.08 0.00 55 1004.8
20260506120506 20 298 3.2 14.5 0.00 0.08 0.00 53 1004.9
20260506120034 19 66 4.8 14.5 0.00 0.08 0.00 53 1005.0
20260506115505 19 124 3.2 14.5 0.00 0.08 0.00 54 1005.1
20260506115005 20 61 3.2 14.5 0.00 0.08 0.00 52 1005.1
20260506114520 20 13 3.2 12.9 0.00 0.08 0.00 55 1005.2
20260506114012 19 11 3.2 12.9 0.00 0.08 0.00 54 1005.3
20260506113511 19 35 3.2 12.9 0.00 0.08 0.00 55 1005.4
20260506113022 18 63 1.6 9.7 0.00 0.08 0.00 56 1005.4
20260506112506 18 80 1.6 8.0 0.00 0.08 0.00 58 1005.4
20260506112007 17 332 1.6 8.0 0.00 0.08 0.00 60 1005.4
20260506111524 17 9 1.6 9.7 0.00 0.08 0.00 60 1005.5
20260506111006 17 109 1.6 9.7 0.00 0.08 0.00 60 1005.6
20260506110507 17 59 1.6 11.3 0.00 0.08 0.00 60 1005.5
20260506110020 17 91 3.2 12.9 0.00 0.08 0.00 61 1005.6
20260506105506 17 42 0.0 14.5 0.00 0.08 0.00 62 1005.6
20260506105007 17 55 3.2 14.5 0.00 0.08 0.00 60 1005.7
20260506104531 17 55 3.2 11.3 0.00 0.08 0.00 60 1005.7
20260506104011 16 22 3.2 9.7 0.00 0.08 0.00 59 1006.0
20260506103508 16 36 0.0 6.4 0.00 0.08 0.00 59 1006.2
20260506103036 16 24 1.6 6.4 0.00 0.08 0.00 59 1006.4
20260506102511 17 47 0.0 6.4 0.00 0.08 0.00 56 1006.5
20260506102008 17 76 0.0 4.8 0.00 0.08 0.00 58 1006.6
20260506101525 17 37 0.0 6.4 0.00 0.08 0.00 56 1006.6
20260506101004 17 97 1.6 6.4 0.00 0.08 0.00 56 1006.6
20260506100506 17 42 1.6 6.4 0.00 0.08 0.00 57 1006.6
20260506100011 17 327 1.6 6.4 0.00 0.08 0.00 59 1006.5
20260506095502 17 57 0.0 6.4 0.00 0.08 0.00 58 1006.5
20260506095004 17 163 1.6 6.4 0.00 0.08 0.00 58 1006.5
20260506094510 18 122 0.0 4.8 0.00 0.08 0.00 58 1006.4
20260506094003 17 352 0.0 9.7 0.00 0.08 0.00 58 1006.4
20260506093502 17 42 1.6 8.0 0.00 0.08 0.00 57 1006.4
20260506093018 17 336 0.0 9.7 0.00 0.08 0.00 57 1006.5
20260506092503 17 85 1.6 11.3 0.00 0.08 0.00 58 1006.5
20260506092003 17 60 1.6 11.3 0.00 0.08 0.00 56 1006.6
20260506091504 18 71 1.6 4.8 0.00 0.08 0.00 56 1006.5
20260506091003 17 114 1.6 6.4 0.00 0.08 0.00 57 1006.5
20260506090502 17 74 3.2 8.0 0.00 0.08 0.00 55 1006.5
20260506090007 17 352 1.6 8.0 0.00 0.08 0.00 57 1006.4
20260506085503 17 67 0.0 9.7 0.00 0.08 0.00 55 1006.5
20260506085003 17 132 1.6 9.7 0.00 0.08 0.00 56 1006.5
20260506084509 17 28 0.0 8.0 0.00 0.08 0.00 59 1006.5
20260506084002 16 44 0.0 8.0 0.00 0.08 0.00 60 1006.6
20260506083503 16 180 0.0 12.9 0.00 0.08 0.00 60 1006.7
20260506083017 16 45 3.2 12.9 0.00 0.08 0.00 62 1006.7
20260506082506 17 53 1.6 6.4 0.00 0.08 0.00 58 1006.8
20260506082006 16 336 1.6 6.4 0.00 0.08 0.00 62 1006.7
20260506081503 16 132 1.6 8.0 0.00 0.08 0.00 60 1006.8
20260506081008 16 12 1.6 8.0 0.00 0.08 0.00 59 1006.9
20260506080504 16 25 1.6 6.4 0.00 0.08 0.00 60 1007.0
20260506073504 15 122 0.0 4.8 0.00 0.08 0.00 65 1007.0
20260506073016 15 61 0.0 4.8 0.00 0.08 0.00 67 1007.1
20260506072505 15 49 3.2 6.4 0.00 0.08 0.00 66 1007.2
20260506072010 15 165 0.0 6.4 0.00 0.08 0.00 68 1007.3
20260506071521 15 150 0.0 3.2 0.00 0.08 0.00 68 1007.4
20260506070503 14 53 0.0 3.2 0.00 0.08 0.00 68 1007.4
20260506062507 12 66 0.0 0.0 0.00 0.08 0.00 81 1007.7
20260506062007 12 66 0.0 0.0 0.00 0.08 0.00 83 1007.7
20260506061520 12 66 0.0 0.0 0.00 0.08 0.00 82 1007.7
20260506061009 12 66 0.0 0.0 0.00 0.08 0.00 83 1007.7
20260506060510 12 66 0.0 3.2 0.00 0.08 0.00 82 1007.7
20260506051010 10 352 0.0 0.0 0.00 0.08 0.00 85 1008.1
20260506050504 10 349 0.0 0.0 0.00 0.08 0.00 88 1008.1
20260506045005 9 349 0.0 0.0 0.00 0.08 0.00 89 1008.0
20260506044519 9 348 0.0 0.0 0.00 0.08 0.00 89 1007.9
20260506044006 9 348 0.0 0.0 0.00 0.08 0.00 89 1007.8
20260506043505 9 328 0.0 0.0 0.00 0.08 0.00 89 1007.8
20260506043012 9 328 0.0 0.0 0.00 0.08 0.00 89 1007.9
20260506042505 10 328 0.0 0.0 0.00 0.08 0.00 89 1008.0
20260506042006 9 328 0.0 0.0 0.00 0.08 0.00 89 1008.0
20260506041519 9 328 0.0 0.0 0.00 0.08 0.00 89 1008.1
20260506041006 9 328 0.0 0.0 0.00 0.08 0.00 89 1008.1
20260506040505 9 333 0.0 1.6 0.00 0.08 0.00 89 1008.1
20260506040010 9 336 0.0 3.2 0.00 0.08 0.00 88 1008.1
20260506035506 9 336 0.0 3.2 0.00 0.08 0.00 88 1008.1
20260506035006 9 9 0.0 0.0 0.00 0.08 0.00 88 1008.2
20260506034520 10 30 0.0 0.0 0.00 0.08 0.00 88 1008.1
20260506034007 10 30 0.0 3.2 0.00 0.08 0.00 88 1008.1
20260506033507 10 42 0.0 3.2 0.00 0.08 0.00 88 1008.2
20260506033008 10 72 0.0 3.2 0.00 0.08 0.00 86 1008.3
20260506032505 10 248 0.0 0.0 0.00 0.08 0.00 84 1008.4
20260506032006 10 248 0.0 0.0 0.00 0.08 0.00 85 1008.5
20260506031513 10 248 0.0 0.0 0.00 0.08 0.00 86 1008.5
20260506031003 10 248 0.0 0.0 0.00 0.08 0.00 86 1008.6
20260506030504 10 248 0.0 0.0 0.00 0.08 0.00 87 1008.7
20260506030014 10 248 0.0 0.0 0.00 0.08 0.00 87 1008.7
20260506025503 10 248 0.0 0.0 0.00 0.08 0.00 87 1008.7
20260506025008 10 247 0.0 0.0 0.00 0.08 0.00 88 1008.8
20260506024520 10 246 0.0 0.0 0.00 0.08 0.00 89 1008.8
20260506024008 10 239 0.0 1.6 0.00 0.08 0.00 88 1008.8
20260506023508 10 239 0.0 1.6 0.00 0.08 0.00 87 1009.0
20260506023043 10 215 0.0 1.6 0.00 0.08 0.00 87 1009.0
20260506022509 10 225 0.0 0.0 0.00 0.08 0.00 87 1008.9
20260506022013 10 225 0.0 0.0 0.00 0.08 0.00 87 1008.7
20260506021512 10 225 0.0 0.0 0.00 0.08 0.00 87 1008.8
20260506021009 10 225 0.0 0.0 0.00 0.08 0.00 87 1008.6
20260506020504 10 225 0.0 0.0 0.00 0.08 0.00 88 1008.7
20260506020016 10 225 0.0 0.0 0.00 0.08 0.00 89 1008.7
20260506015504 10 207 0.0 1.6 0.00 0.08 0.00 89 1008.8
20260506015008 10 206 0.0 1.6 0.00 0.08 0.00 89 1008.8
20260506014522 10 199 0.0 0.0 0.00 0.08 0.00 90 1008.8
20260506014008 10 217 0.0 0.0 0.00 0.08 0.00 90 1008.9
20260506013508 10 217 0.0 0.0 0.00 0.08 0.00 90 1008.9
20260506013003 10 217 0.0 0.0 0.00 0.08 0.00 90 1009.0
20260506012504 10 217 0.0 0.0 0.00 0.08 0.00 90 1009.1
20260506012004 10 217 0.0 0.0 0.00 0.08 0.00 90 1009.1
20260506011511 10 217 0.0 0.0 0.00 0.08 0.00 90 1009.1
20260506011004 10 217 0.0 0.0 0.00 0.08 0.00 89 1009.1
20260506010507 10 217 0.0 0.0 0.00 0.08 0.00 89 1008.9
20260506010017 10 213 0.0 0.0 0.00 0.08 0.00 88 1008.9
20260506005504 10 213 0.0 0.0 0.00 0.08 0.00 88 1009.0
20260506005009 10 213 0.0 0.0 0.00 0.08 0.00 88 1008.9
20260506004525 10 213 0.0 0.0 0.00 0.08 0.00 87 1009.0
20260506004011 10 213 0.0 0.0 0.00 0.08 0.00 87 1009.0
20260506003515 10 213 0.0 0.0 0.00 0.08 0.00 87 1009.1
20260506003007 10 177 0.0 0.0 0.00 0.08 0.00 87 1009.1
20260506002504 10 150 0.0 0.0 0.00 0.08 0.00 89 1009.1
20260506002004 10 150 0.0 0.0 0.00 0.08 0.00 89 1009.2
20260506001506 10 150 0.0 0.0 0.00 0.08 0.00 89 1009.2
20260506001004 10 136 0.0 0.0 0.00 0.08 0.00 88 1009.3
20260506000504 11 170 0.0 0.0 0.00 0.08 0.00 88 1009.4
20260506000014 11 190 0.0 0.0 0.00 0.08 0.00 88 1009.3
20260505235505 11 190 0.0 0.0 0.00 0.08 0.00 87 1009.4
20260505235006 11 180 0.0 1.6 0.00 0.08 0.00 88 1009.4
20260505234519 11 184 0.0 1.6 0.00 0.08 0.00 88 1009.4
20260505234007 11 218 0.0 3.2 0.00 0.08 0.00 87 1009.4
20260505233510 11 165 0.0 3.2 0.00 0.08 0.00 86 1009.5
20260505233008 11 209 0.0 3.2 0.00 0.08 0.00 86 1009.6
20260505232504 11 202 0.0 4.8 0.00 0.08 0.00 87 1009.6
20260505232006 11 291 0.0 4.8 0.00 0.08 0.00 88 1009.7
20260505231532 11 285 0.0 4.8 0.00 0.08 0.00 88 1009.8
20260505231011 11 253 0.0 4.8 0.00 0.08 0.00 88 1009.8
20260505230502 11 234 1.6 3.2 0.00 0.08 0.00 88 1009.7
20260505230020 11 209 0.0 6.4 0.00 0.08 0.00 88 1009.6
20260505225504 11 219 0.0 6.4 0.00 0.08 0.00 88 1009.6
20260505225004 11 299 0.0 4.8 0.00 0.08 0.00 88 1009.5
20260505224515 11 237 0.0 6.4 0.00 0.08 0.00 88 1009.5
20260505224004 11 178 1.6 6.4 0.05 0.08 0.00 88 1009.6
20260505223505 11 263 0.0 8.0 0.08 0.08 0.00 88 1009.6
20260505223011 11 258 1.6 8.0 0.08 0.08 0.00 88 1009.7
20260505222503 11 241 0.0 9.7 0.08 0.08 0.00 88 1009.8
20260505222004 11 301 1.6 14.5 0.08 0.08 0.00 88 1009.9
20260505221516 11 200 0.0 14.5 0.05 0.08 0.00 88 1010.0
20260505221006 11 298 3.2 8.0 0.05 0.08 0.00 88 1010.2
20260505220505 11 271 1.6 12.9 0.05 0.08 0.00 88 1010.2
20260505220024 11 271 3.2 12.9 0.08 0.08 0.00 88 1010.1
20260505215508 11 246 0.0 9.7 0.08 0.08 0.08 88 1010.2
20260505215003 11 271 1.6 9.7 0.08 0.08 0.08 87 1010.1
20260505214512 12 280 3.2 14.5 0.08 0.08 0.08 86 1010.1
20260505214004 12 256 3.2 14.5 0.03 0.03 0.03 85 1010.1
20260505213504 12 288 1.6 9.7 0.00 0.00 0.00 84 1010.1
20260505213016 12 266 3.2 9.7 0.00 0.00 0.00 84 1010.1
20260505212504 12 280 1.6 8.0 0.00 0.00 0.00 84 1010.0
20260505212004 12 281 1.6 4.8 0.00 0.00 0.00 84 1009.9
20260505211516 12 276 0.0 3.2 0.00 0.00 0.00 84 1009.9
20260505211007 12 303 0.0 6.4 0.00 0.00 0.00 83 1009.9
20260505210508 12 268 0.0 11.3 0.00 0.00 0.00 81 1009.8
20260505210026 13 268 3.2 8.0 0.00 0.00 0.00 77 1009.8
20260505205511 13 333 1.6 11.3 0.00 0.00 0.00 75 1009.8
20260505205011 13 243 1.6 11.3 0.00 0.00 0.00 74 1009.5
20260505204527 13 319 1.6 9.7 0.00 0.00 0.00 73 1009.5
20260505204003 14 256 3.2 12.9 0.00 0.00 0.00 72 1009.3
20260505203503 14 232 3.2 12.9 0.00 0.00 0.00 71 1009.2
20260505203019 14 285 1.6 8.0 0.00 0.00 0.00 72 1009.1
20260505202504 13 317 1.6 11.3 0.00 0.00 0.00 73 1009.0
20260505202009 13 274 1.6 11.3 0.00 0.00 0.00 74 1009.0
20260505201531 13 235 0.0 3.2 0.00 0.00 0.00 74 1008.9
20260505201009 13 252 0.0 1.6 0.00 0.00 0.00 75 1008.6
20260505200505 13 242 0.0 3.2 0.00 0.00 0.00 74 1008.4
20260505200025 13 250 0.0 3.2 0.00 0.00 0.00 74 1008.3
20260505195506 13 257 0.0 3.2 0.00 0.00 0.00 74 1008.2
20260505195010 13 275 0.0 3.2 0.00 0.00 0.00 73 1008.0
20260505194528 14 256 0.0 3.2 0.00 0.00 0.00 73 1007.9
20260505194010 14 262 0.0 3.2 0.00 0.00 0.00 73 1007.8
20260505193506 14 269 0.0 3.2 0.00 0.00 0.00 73 1007.7
20260505193015 14 274 0.0 3.2 0.00 0.00 0.00 73 1007.7
20260505192504 14 252 0.0 3.2 0.00 0.00 0.00 73 1007.6
20260505192007 14 284 0.0 3.2 0.00 0.00 0.00 73 1007.5
20260505191520 15 321 0.0 3.2 0.00 0.00 0.00 73 1007.3
20260505191007 15 15 0.0 8.0 0.00 0.00 0.00 72 1007.3
20260505190510 15 318 0.0 8.0 0.00 0.00 0.00 72 1007.4
20260505190025 15 330 0.0 4.8 0.00 0.00 0.00 73 1007.4
20260505185512 15 238 0.0 4.8 0.00 0.00 0.00 74 1007.5
20260505185010 15 269 0.0 4.8 0.00 0.00 0.00 76 1007.5
20260505184527 14 316 0.0 4.8 0.00 0.00 0.00 76 1007.5
20260505184011 15 269 0.0 4.8 0.00 0.00 0.00 76 1007.4
20260505183504 14 323 0.0 3.2 0.00 0.00 0.00 76 1007.3
20260505183023 14 328 0.0 3.2 0.00 0.00 0.00 76 1007.1
20260505182507 15 336 0.0 3.2 0.00 0.00 0.00 75 1007.0
20260505182007 15 336 0.0 1.6 0.00 0.00 0.00 75 1007.0
20260505181515 15 313 0.0 3.2 0.00 0.00 0.00 74 1006.9
20260505181004 15 352 0.0 1.6 0.00 0.00 0.00 74 1006.6
20260505180503 15 333 0.0 3.2 0.00 0.00 0.00 73 1006.6
20260505180022 15 336 0.0 4.8 0.00 0.00 0.00 72 1006.4
20260505175508 15 340 0.0 4.8 0.00 0.00 0.00 71 1006.4
20260505175008 15 329 0.0 3.2 0.00 0.00 0.00 71 1006.3
20260505174529 16 325 0.0 3.2 0.00 0.00 0.00 71 1006.3
20260505174010 16 330 0.0 11.3 0.00 0.00 0.00 71 1006.4
20260505173504 16 336 0.0 11.3 0.00 0.00 0.00 70 1006.3
20260505173019 16 339 0.0 6.4 0.00 0.00 0.00 70 1006.3
20260505172508 16 346 0.0 4.8 0.00 0.00 0.00 70 1006.2
20260505172012 15 315 1.6 4.8 0.00 0.00 0.00 70 1006.2
20260505171521 16 341 0.0 4.8 0.00 0.00 0.00 70 1006.2
20260505171008 16 323 0.0 3.2 0.00 0.00 0.00 70 1006.2
20260505170508 16 337 0.0 6.4 0.00 0.00 0.00 71 1006.2
20260505170021 16 38 0.0 6.4 0.00 0.00 0.00 71 1006.2
20260505165507 16 9 0.0 6.4 0.00 0.00 0.00 71 1006.3
20260505165008 16 14 0.0 6.4 0.00 0.00 0.00 70 1006.3
20260505164522 16 319 1.6 11.3 0.00 0.00 0.00 68 1006.3
20260505164005 16 337 0.0 11.3 0.00 0.00 0.00 68 1006.3
20260505163505 16 285 3.2 9.7 0.00 0.00 0.00 67 1006.1
20260505163023 17 308 0.0 6.4 0.00 0.00 0.00 68 1006.2
20260505162506 16 345 0.0 6.4 0.00 0.00 0.00 69 1006.2
20260505162002 16 298 0.0 8.0 0.00 0.00 0.00 70 1006.3
20260505161506 16 322 1.6 8.0 0.00 0.00 0.00 69 1006.4
20260505161008 16 333 1.6 9.7 0.00 0.00 0.00 68 1006.5
20260505160504 16 332 3.2 9.7 0.00 0.00 0.00 67 1006.3
20260505153003 16 324 1.6 6.4 0.00 0.00 0.00 69 1006.9
20260505152504 16 322 1.6 6.4 0.00 0.00 0.00 69 1006.9
20260505152005 16 343 0.0 3.2 0.00 0.00 0.00 68 1007.0
20260505151506 16 332 0.0 4.8 0.00 0.00 0.00 70 1007.1
20260505151004 16 284 0.0 4.8 0.00 0.00 0.00 70 1007.2
20260505150504 16 273 0.0 4.8 0.00 0.00 0.00 68 1007.1
20260505140505 18 352 9.7 22.5 0.00 0.00 0.00 50 1006.5
20260505125002 22 122 1.6 6.4 0.00 0.00 0.00 37 1006.3
20260505124513 23 352 0.0 4.8 0.00 0.00 0.00 34 1006.3
20260505124007 23 302 0.0 4.8 0.00 0.00 0.00 34 1006.2
20260505123507 22 272 0.0 6.4 0.00 0.00 0.00 34 1006.3
20260505123008 22 181 1.6 6.4 0.00 0.00 0.00 34 1006.3
20260505122503 23 244 3.2 8.0 0.00 0.00 0.00 33 1006.4
20260505122004 23 211 1.6 8.0 0.00 0.00 0.00 34 1006.4